Location: Plainartige
(45.6866°N, 1.7993°E)
Time: 16:56:01
(UTC+00:00)

Tiros 1 - Pass Details

Date: 28 May 2022
Orbit: 629 x 663 km, 48.4° (Epoch: 05 July)

Event Time Altitude Azimuth Distance (km) Brightness Sun altitude
Exits shadow 22:52:47 11° 89° (E) 1,916 9.4 -21.5°
Drops below altitude 10° 22:53:06 10° 87° (E) 2,012 9.6 -21.5°
Sets 22:55:46 0° 73° (ENE) 2,928 10.6 -21.6°
